Location: Rioux
(40.7500°S, 175.7500°E)
Time: 09:20:04
(UTC+00:00)

SL-19 R/B - Pass Details

Date: 12 June 2024
Orbit: 796 x 1008 km, 99.6° (Epoch: 20 July)

Event Time Altitude Azimuth Distance (km) Brightness Sun altitude
Rises 17:06:03 0° 8° (N) 3,723 7.7 -28.0°
Reaches altitude 10° 17:08:33 10° 5° (N) 2,784 7.0 -27.5°
Maximum altitude 17:14:49 66° 283° (WNW) 1,098 4.4 -26.4°
Enters shadow 17:15:30 62° 248° (WSW) 1,133 4.5 -26.2°
